Time,TemperatureF,DewpointF,PressureIn,WindDirection,WindDirectionDegrees,WindSpeedMPH,WindSpeedGustMPH,Humidity,HourlyPrecipIn,Conditions,Clouds,dailyrainin,SoftwareType,DateUTC
2013-07-28 00:02:00,63.0,57.0,-100.00,North,359,-999.0,0.0,81,-99.99,,,-99.99,,2013-07-28 07:02:00,
2013-07-28 00:12:00,61.0,56.0,-100.00,North,359,-999.0,0.0,83,-99.99,,,-99.99,,2013-07-28 07:12:00,
2013-07-28 00:22:00,61.0,56.0,-100.00,North,359,-999.0,0.0,83,-99.99,,,-99.99,,2013-07-28 07:22:00,
2013-07-28 00:42:00,61.0,57.0,-100.00,North,359,-999.0,0.0,88,-99.99,,,-99.99,,2013-07-28 07:42:00,
2013-07-28 00:53:00,61.0,57.0,-100.00,North,359,-999.0,0.0,88,-99.99,,,-99.99,,2013-07-28 07:53:00,
2013-07-28 01:12:00,59.0,57.0,-100.00,North,-999,-999.0,0.0,92,-99.99,,,-99.99,,2013-07-28 08:12:00,
2013-07-28 01:22:00,59.0,57.0,-100.00,North,-999,-999.0,0.0,92,-99.99,,,-99.99,,2013-07-28 08:22:00,
2013-07-28 01:42:00,59.0,56.0,-100.00,North,359,-999.0,0.0,91,-99.99,,,-99.99,,2013-07-28 08:42:00,
2013-07-28 01:53:00,59.0,56.0,-100.00,North,359,-999.0,0.0,91,-99.99,,,-99.99,,2013-07-28 08:53:00,
2013-07-28 02:02:00,59.0,56.0,-100.00,North,359,-999.0,0.0,91,-99.99,,,-99.99,,2013-07-28 09:02:00,
2013-07-28 02:12:00,59.0,56.0,-100.00,North,359,-999.0,0.0,91,-99.99,,,-99.99,,2013-07-28 09:12:00,
2013-07-28 02:22:00,59.0,56.0,-100.00,North,359,-999.0,0.0,91,-99.99,,,-99.99,,2013-07-28 09:22:00,
2013-07-28 02:32:00,59.0,56.0,-100.00,North,359,-999.0,0.0,91,-99.99,,,-99.99,,2013-07-28 09:32:00,
2013-07-28 02:43:00,59.0,57.0,-100.00,North,359,-999.0,0.0,92,-99.99,,,-99.99,,2013-07-28 09:43:00,
2013-07-28 02:53:00,59.0,57.0,-100.00,North,359,-999.0,0.0,92,-99.99,,,-99.99,,2013-07-28 09:53:00,
2013-07-28 03:12:00,59.0,57.0,-100.00,North,359,-999.0,0.0,92,-99.99,,,-99.99,,2013-07-28 10:12:00,
2013-07-28 03:22:00,59.0,57.0,-100.00,North,359,-999.0,0.0,92,-99.99,,,-99.99,,2013-07-28 10:22:00,
2013-07-28 03:32:00,59.0,57.0,-100.00,North,359,-999.0,0.0,92,-99.99,,,-99.99,,2013-07-28 10:32:00,
2013-07-28 03:42:00,59.0,57.0,-100.00,North,359,-999.0,0.0,92,-99.99,,,-99.99,,2013-07-28 10:42:00,
2013-07-28 03:53:00,59.0,57.0,-100.00,North,359,-999.0,0.0,92,-99.99,,,-99.99,,2013-07-28 10:53:00,
2013-07-28 04:02:00,59.0,57.0,-100.00,North,359,-999.0,0.0,92,-99.99,,,-99.99,,2013-07-28 11:02:00,
2013-07-28 04:12:00,61.0,57.0,-100.00,North,359,-999.0,0.0,88,-99.99,,,-99.99,,2013-07-28 11:12:00,
2013-07-28 04:22:00,61.0,57.0,-100.00,North,359,-999.0,0.0,88,-99.99,,,-99.99,,2013-07-28 11:22:00,
2013-07-28 04:33:00,60.0,57.0,-100.00,North,359,-999.0,0.0,89,-99.99,,,-99.99,,2013-07-28 11:33:00,
2013-07-28 04:43:00,60.0,57.0,-100.00,North,359,-999.0,0.0,89,-99.99,,,-99.99,,2013-07-28 11:43:00,
2013-07-28 04:54:00,60.0,57.0,-100.00,North,359,-999.0,0.0,89,-99.99,,,-99.99,,2013-07-28 11:54:00,
2013-07-28 05:12:00,56.0,55.0,-100.00,North,359,-999.0,0.0,98,-99.99,,,-99.99,,2013-07-28 12:12:00,
2013-07-28 05:22:00,56.0,55.0,-100.00,North,359,-999.0,0.0,98,-99.99,,,-99.99,,2013-07-28 12:22:00,
2013-07-28 05:43:00,59.0,58.0,-100.00,North,359,-999.0,0.0,95,-99.99,,,-99.99,,2013-07-28 12:43:00,
2013-07-28 05:53:00,59.0,58.0,-100.00,North,359,-999.0,0.0,95,-99.99,,,-99.99,,2013-07-28 12:53:00,
2013-07-28 06:12:00,52.0,52.0,-100.00,North,357,-999.0,0.0,100,-99.99,,,-99.99,,2013-07-28 13:12:00,
2013-07-28 06:22:00,52.0,52.0,-100.00,North,357,-999.0,0.0,100,-99.99,,,-99.99,,2013-07-28 13:22:00,
2013-07-28 06:43:00,52.0,52.0,-100.00,North,357,-999.0,0.0,100,-99.99,,,-99.99,,2013-07-28 13:43:00,
2013-07-28 06:53:00,52.0,52.0,-100.00,North,357,-999.0,0.0,100,-99.99,,,-99.99,,2013-07-28 13:53:00,
2013-07-28 07:02:00,52.0,52.0,-100.00,North,357,-999.0,0.0,100,-99.99,,,-99.99,,2013-07-28 14:02:00,
2013-07-28 07:12:00,53.0,53.0,-100.00,North,357,-999.0,0.0,100,-99.99,,,-99.99,,2013-07-28 14:12:00,
2013-07-28 07:22:00,53.0,53.0,-100.00,North,357,-999.0,0.0,100,-99.99,,,-99.99,,2013-07-28 14:22:00,
2013-07-28 07:33:00,53.0,53.0,-100.00,North,357,-999.0,0.0,100,-99.99,,,-99.99,,2013-07-28 14:33:00,
2013-07-28 07:43:00,54.0,54.0,-100.00,North,360,-999.0,0.0,100,-99.99,,,-99.99,,2013-07-28 14:43:00,
2013-07-28 07:53:00,54.0,54.0,-100.00,North,360,-999.0,0.0,100,-99.99,,,-99.99,,2013-07-28 14:53:00,
2013-07-28 08:12:00,58.0,58.0,-100.00,North,360,-999.0,0.0,100,-99.99,,,-99.99,,2013-07-28 15:12:00,
2013-07-28 08:22:00,58.0,58.0,-100.00,North,360,-999.0,0.0,100,-99.99,,,-99.99,,2013-07-28 15:22:00,
2013-07-28 08:43:00,58.0,58.0,-100.00,North,0,-999.0,0.0,100,-99.99,,,-99.99,,2013-07-28 15:43:00,
2013-07-28 08:53:00,58.0,58.0,-100.00,North,0,-999.0,0.0,100,-99.99,,,-99.99,,2013-07-28 15:53:00,
2013-07-28 09:02:00,58.0,58.0,-100.00,North,0,-999.0,0.0,100,-99.99,,,-99.99,,2013-07-28 16:02:00,
2013-07-28 09:12:00,59.0,59.0,-100.00,SSE,153,-999.0,0.0,99,-99.99,,,-99.99,,2013-07-28 16:12:00,
2013-07-28 09:22:00,59.0,59.0,-100.00,SSE,153,-999.0,0.0,99,-99.99,,,-99.99,,2013-07-28 16:22:00,
2013-07-28 11:42:00,67.0,62.0,-100.00,SE,128,-999.0,7.0,84,-99.99,,,-99.99,,2013-07-28 18:42:00,
2013-07-28 11:52:00,67.0,62.0,-100.00,SE,128,-999.0,7.0,84,-99.99,,,-99.99,,2013-07-28 18:52:00,
2013-07-28 12:12:00,67.0,62.0,-100.00,SSE,168,-999.0,8.0,85,-99.99,,,-99.99,,2013-07-28 19:12:00,
2013-07-28 12:22:00,67.0,62.0,-100.00,SSE,168,-999.0,8.0,85,-99.99,,,-99.99,,2013-07-28 19:22:00,
2013-07-28 12:43:00,66.0,62.0,-100.00,South,189,-999.0,9.0,87,-99.99,,,-99.99,,2013-07-28 19:43:00,
2013-07-28 12:52:00,66.0,62.0,-100.00,South,189,-999.0,9.0,87,-99.99,,,-99.99,,2013-07-28 19:52:00,
2013-07-28 13:11:00,68.0,62.0,-100.00,SSE,162,-999.0,7.0,82,-99.99,,,-99.99,,2013-07-28 20:11:00,
2013-07-28 13:12:00,67.0,62.0,-100.00,SE,135,-999.0,8.0,85,-99.99,,,-99.99,,2013-07-28 20:12:00,
2013-07-28 13:22:00,67.0,62.0,-100.00,SE,135,-999.0,8.0,85,-99.99,,,-99.99,,2013-07-28 20:22:00,
2013-07-28 13:33:00,68.0,62.0,-100.00,SSE,162,-999.0,7.0,82,-99.99,,,-99.99,,2013-07-28 20:33:00,
2013-07-28 13:43:00,68.0,62.0,-100.00,SSE,162,-999.0,7.0,82,-99.99,,,-99.99,,2013-07-28 20:43:00,
2013-07-28 13:53:00,68.0,62.0,-100.00,SSE,162,-999.0,7.0,82,-99.99,,,-99.99,,2013-07-28 20:53:00,
2013-07-28 14:02:00,68.0,62.0,-100.00,SSE,162,-999.0,7.0,82,-99.99,,,-99.99,,2013-07-28 21:02:00,
2013-07-28 14:33:00,72.0,63.0,-100.00,SSW,201,-999.0,6.0,73,-99.99,,,-99.99,,2013-07-28 21:33:00,
2013-07-28 14:44:00,72.0,63.0,-100.00,SSW,201,-999.0,6.0,73,-99.99,,,-99.99,,2013-07-28 21:44:00,
2013-07-28 14:52:00,72.0,63.0,-100.00,SSW,201,-999.0,6.0,73,-99.99,,,-99.99,,2013-07-28 21:52:00,
2013-07-28 18:42:00,72.0,61.0,-100.00,SSW,203,-999.0,2.0,68,-99.99,,,-99.99,,2013-07-29 01:42:00,
2013-07-28 19:00:00,72.0,61.0,-100.00,SSW,203,-999.0,2.0,68,-99.99,,,-99.99,,2013-07-29 02:00:00,
2013-07-28 19:12:00,70.0,60.0,-100.00,SSW,207,-999.0,0.0,71,-99.99,,,-99.99,,2013-07-29 02:12:00,
2013-07-28 19:24:00,70.0,60.0,-100.00,SSW,207,-999.0,0.0,71,-99.99,,,-99.99,,2013-07-29 02:24:00,
2013-07-28 19:34:00,70.0,60.0,-100.00,SSW,207,-999.0,0.0,71,-99.99,,,-99.99,,2013-07-29 02:34:00,
2013-07-28 19:58:00,63.0,59.0,-100.00,SSW,193,-999.0,0.0,88,-99.99,,,-99.99,,2013-07-29 02:58:00,
2013-07-28 20:22:00,60.0,59.0,-100.00,SSW,193,-999.0,0.0,95,-99.99,,,-99.99,,2013-07-29 03:22:00,
2013-07-28 20:58:00,58.0,57.0,-100.00,SSW,193,-999.0,0.0,98,-99.99,,,-99.99,,2013-07-29 03:58:00,
2013-07-28 21:12:00,56.0,56.0,-100.00,SSW,193,-999.0,0.0,100,-99.99,,,-99.99,,2013-07-29 04:12:00,
2013-07-28 21:22:00,56.0,56.0,-100.00,SSW,193,-999.0,0.0,100,-99.99,,,-99.99,,2013-07-29 04:22:00,
2013-07-28 21:32:00,56.0,56.0,-100.00,SSW,193,-999.0,0.0,100,-99.99,,,-99.99,,2013-07-29 04:32:00,
2013-07-28 21:43:00,54.0,54.0,-100.00,SSW,193,-999.0,0.0,100,-99.99,,,-99.99,,2013-07-29 04:43:00,
2013-07-28 21:53:00,54.0,54.0,-100.00,SSW,193,-999.0,0.0,100,-99.99,,,-99.99,,2013-07-29 04:53:00,
2013-07-28 22:02:00,54.0,54.0,-100.00,SSW,193,-999.0,0.0,100,-99.99,,,-99.99,,2013-07-29 05:02:00,
2013-07-28 22:12:00,54.0,54.0,-100.00,SSW,193,-999.0,0.0,100,-99.99,,,-99.99,,2013-07-29 05:12:00,
2013-07-28 22:22:00,54.0,54.0,-100.00,SSW,193,-999.0,0.0,100,-99.99,,,-99.99,,2013-07-29 05:22:00,
2013-07-28 22:42:00,54.0,54.0,-100.00,SSW,193,-999.0,0.0,100,-99.99,,,0.00,,2013-07-29 05:42:00,
2013-07-28 22:53:00,54.0,54.0,-100.00,SSW,193,-999.0,0.0,100,-99.99,,,0.00,,2013-07-29 05:53:00,
2013-07-28 23:02:00,53.0,53.0,-100.00,SSW,192,-999.0,0.0,100,-99.99,,,-99.99,,2013-07-29 06:02:00,
2013-07-28 23:12:00,53.0,53.0,-100.00,SSW,192,-999.0,0.0,100,-99.99,,,-99.99,,2013-07-29 06:12:00,
2013-07-28 23:22:00,53.0,53.0,-100.00,SSW,192,-999.0,0.0,100,-99.99,,,-99.99,,2013-07-29 06:22:00,
2013-07-28 23:32:00,53.0,53.0,-100.00,SSW,192,-999.0,0.0,100,-99.99,,,-99.99,,2013-07-29 06:32:00,
2013-07-28 23:43:00,53.0,53.0,-100.00,SSW,193,-999.0,0.0,100,-99.99,,,-99.99,,2013-07-29 06:43:00,
2013-07-28 23:52:00,53.0,53.0,-100.00,SSW,193,-999.0,0.0,100,-99.99,,,-99.99,,2013-07-29 06:52:00,